Weather History for KHLC - October, 2010

Change the Weather History Date:

Friday, October 1, 2010

  Actual Average Record
Temperature  
Mean Temperature 62 °F 60 °F  
Max Temperature 82 °F 75 °F 98 °F (2000)
Min Temperature 42 °F 46 °F 30 °F (1975)
Degree Days  
Heating Degree Days 2    
Growing Degree Days 13 (Base 50)    
Moisture  
Dew Point 42 °F    
Average Humidity 53    
Maximum Humidity 85    
Minimum Humidity 23    
Precipitation  
Precipitation 0.00 in 0.05 in 0.44 in (1998)
Month to date precipitation 0.00 0.05  
Year to date precipitation 15.90 19.81  
Sea Level Pressure  
Sea Level Pressure 30.15 in    
Wind  
Wind Speed 4 mph (WSW)    
Max Wind Speed 13 mph    
Max Gust Speed 16 mph    
Visibility 10 miles    
Events      
T = Trace of Precipitation, MM = Missing Value Source: NWS Daily Summary

Daily Weather History Graph

Daily Weather History Graph

Search for Another Location

Airport or City:

Trip Planner

Search our weather history database for the weather conditions in past years. The results will help you decide how hot, cold, wet, or windy it might be!

Date:

Astronomy

Oct. 01, 2010 Rise Set
Actual Time 7:35 AM CDT 7:21 PM CDT
Civil Twilight 7:08 AM CDT 7:48 PM CDT
Nautical Twilight 6:37 AM CDT 8:19 PM CDT
Astronomical Twilight 6:06 AM CDT 8:50 PM CDT
Moon 12:16 AM CDT (10/1) 3:26 PM CDT (10/1)
Length of Visible Light 12h 39m
Length of Day
11h 46m
Last Quarter, 44% of the Moon is Illuminated
Oct 1
Last Quarter
Oct 7
New
Oct 14
First Quarter
Oct 22
Full
Oct 30
Last Quarter

Hourly Weather History & Observations

Time (CDT) Temp. Windchill Dew Point Humidity Pressure Visibility Wind Dir Wind Speed Gust Speed Precip Events Conditions
12:53 AM 46.9 °F - 41.0 °F 80% 30.18 in 10.0 mi West 3.5 mph - N/A   Clear
1:53 AM 46.0 °F - 41.0 °F 83% 30.17 in 10.0 mi Calm Calm - N/A   Clear
2:53 AM 46.0 °F - 39.9 °F 79% 30.18 in 10.0 mi Calm Calm - N/A   Clear
3:53 AM 46.0 °F 44.8 °F 39.9 °F 79% 30.17 in 10.0 mi NW 3.5 mph - N/A   Clear
4:53 AM 45.0 °F - 39.9 °F 82% 30.17 in 10.0 mi Calm Calm - N/A   Clear
5:53 AM 44.1 °F - 39.9 °F 85% 30.18 in 10.0 mi Calm Calm - N/A   Clear
6:53 AM 44.1 °F 42.5 °F 39.0 °F 82% 30.19 in 10.0 mi West 3.5 mph - N/A   Clear
7:53 AM 46.9 °F - 39.9 °F 77% 30.21 in 10.0 mi West 5.8 mph - N/A   Clear
8:53 AM 52.0 °F - 43.0 °F 71% 30.22 in 10.0 mi West 4.6 mph - N/A   Clear
9:53 AM 57.0 °F - 45.0 °F 64% 30.22 in 10.0 mi WSW 3.5 mph - N/A   Overcast
10:53 AM 70.0 °F - 45.0 °F 41% 30.20 in 10.0 mi SW 9.2 mph - N/A   Clear
11:53 AM 73.9 °F - 44.1 °F 34% 30.18 in 10.0 mi SSW 10.4 mph - N/A   Clear
12:53 PM 75.9 °F - 43.0 °F 31% 30.16 in 10.0 mi South 10.4 mph - N/A   Clear
1:53 PM 78.1 °F - 41.0 °F 27% 30.13 in 10.0 mi South 11.5 mph 16.1 mph N/A   Clear
2:53 PM 81.0 °F - 39.9 °F 23% 30.10 in 10.0 mi South 9.2 mph - N/A   Clear
3:53 PM 82.0 °F - 41.0 °F 23% 30.08 in 10.0 mi Calm Calm - N/A   Clear
4:53 PM 82.0 °F - 42.1 °F 24% 30.07 in 10.0 mi Variable 3.5 mph - N/A   Clear
5:53 PM 81.0 °F - 42.1 °F 25% 30.07 in 10.0 mi Variable 4.6 mph - N/A   Clear
6:53 PM 78.1 °F - 46.0 °F 32% 30.08 in 10.0 mi Calm Calm - N/A   Clear
7:53 PM 66.9 °F - 45.0 °F 45% 30.10 in 10.0 mi East 4.6 mph - N/A   Clear
8:53 PM 64.9 °F - 45.0 °F 48% 30.11 in 10.0 mi Calm Calm - N/A   Clear
9:53 PM 57.9 °F - 45.0 °F 62% 30.13 in 10.0 mi Calm Calm - N/A   Clear
10:53 PM 64.0 °F - 43.0 °F 46% 30.11 in 10.0 mi South 4.6 mph - N/A   Clear
11:45 PM 66.2 °F - 42.8 °F 43% 30.20 in 10.0 mi NNE 12.7 mph - N/A   Partly Cloudy
11:53 PM 64.9 °F - 43.0 °F 45% 30.16 in 10.0 mi North 8.1 mph - N/A   Partly Cloudy